Location: Mexico
(19.4000°N, 99.1500°W)
Time: 04:57:00
(UTC-06:00)

ISS - Pass Details

Date: 19 March 2019
Orbit: 408 x 411 km, 51.6° (Epoch: 24 March)

Event Time Altitude Azimuth Distance (km) Brightness Sun altitude
Rises 19:32:26 0° 223° (SW) 2,320 0.6 -11.5°
Reaches altitude 10° 19:34:32 10° 226° (SW) 1,461 -0.4 -11.9°
Maximum altitude 19:37:47 65° 309° (NW) 448 -3.4 -12.7°
Drops below altitude 10° 19:41:02 10° 32° (NNE) 1,463 -1.3 -13.5°
Enters shadow 19:41:29 - 33° (NNE) 1,648 -1.0 -13.6°
